Flag for Germany Weather past 2 weeks in Strausberg, Brandenburg, Germany

Now
36 °F

Broken clouds.


Feels Like: 29 °F
Forecast: 30 / 43 °F
Wind: 9 mph from West

Location: Berlin-Schoenefeld

Current Time: Feb 28, 2015 at 8:47:30 AM

Latest Report: Feb 28, 2015 at 8:20 AM


Visibility: N/A

Pressure: 30.09 "Hg

Humidity: 93%

Dew point: 34 °F

Location of StrausbergLocation

Historic Weather in Strausberg — Graph

°F

Strausberg temperature yesterday

Maximum temperature yesterday: 50 °F (at 1:50 PM)
Minimum temperature yesterday: 28 °F (at 3:50 AM)
Average temperature yesterday: 38 °F

Past Weeks' High & Low Weather Summary

 TemperatureHumidityPressure
High52 °F (Feb 21, 12:20 PM)100% (Feb 13, 7:20 AM)30.72 "Hg (Feb 13, 7:20 AM)
Low25 °F (Feb 14, 4:50 AM)43% (Feb 27, 1:50 PM)29.39 "Hg (Feb 21, 12:50 PM)
Average36 °F82%30.02 "Hg
* Reported Feb 13 7:20 AM — Feb 28 7:20 AM, Strausberg, Weather by CustomWeather, © 2015

Note: Actual official high and low records may vary slightly from our data, if they occured in-between our weather recording intervals... More about our weather records

Advertising

Strausberg weather history for previous 24 hours

 ConditionsComfort  
Time TempWeatherWind HumidityBarometerVisibility
7:20 AM
Sat, Feb 28
37 °FPartly sunny.13 mph93%30.09 "HgN/A
6:50 AM37 °FLow clouds.13 mph93%30.07 "HgN/A
6:20 AM37 °FLow clouds.13 mph93%30.07 "HgN/A
5:50 AM37 °FLow clouds.12 mph100%30.07 "HgN/A
5:20 AM37 °FPassing clouds.12 mph100%30.04 "HgN/A
4:20 AM37 °FPartly cloudy.9 mph93%30.04 "HgN/A
3:50 AM37 °FPartly cloudy.9 mph93%30.04 "HgN/A
3:20 AM37 °FPartly cloudy.12 mph93%30.01 "HgN/A
2:50 AM37 °FLight rain. Partly cloudy.9 mph100%30.01 "HgN/A
2:20 AM37 °FLight rain. Passing clouds.7 mph100%30.01 "Hg5 mi
1:50 AM37 °FLight rain. Partly cloudy.6 mph100%30.01 "Hg5 mi
1:20 AM37 °FLight rain. Partly cloudy.7 mph100%30.01 "HgN/A
12:50 AM36 °FLight rain. Passing clouds.8 mph100%30.01 "HgN/A
12:20 AM37 °FLight rain. Passing clouds.7 mph87%30.01 "HgN/A
11:50 PM
Fri, Feb 27
36 °FPartly cloudy.6 mph93%30.01 "HgN/A
11:20 PM36 °FPassing clouds.6 mph93%30.01 "HgN/A
10:50 PM34 °FPassing clouds.6 mph87%30.01 "HgN/A
10:20 PM36 °FClear.5 mph81%30.01 "Hg10 mi
9:20 PM34 °FClear.6 mph81%29.98 "Hg10 mi
8:50 PM36 °FClear.5 mph75%29.98 "Hg10 mi
8:20 PM34 °FClear.5 mph81%29.98 "Hg10 mi
7:50 PM36 °FClear.6 mph70%29.95 "Hg10 mi
7:20 PM37 °FClear.8 mph70%29.95 "Hg10 mi
6:50 PM41 °FClear.3 mph57%29.95 "Hg10 mi
6:20 PM41 °FClear.5 mph57%29.92 "Hg10 mi
5:50 PM43 °FClear.5 mph53%29.92 "Hg10 mi
5:20 PM46 °FSunny.6 mph46%29.92 "Hg10 mi
4:50 PM48 °FSunny.5 mph46%29.89 "Hg10 mi
4:20 PM50 °FSunny.5 mph43%29.89 "Hg10 mi
3:50 PM50 °FSunny.5 mph43%29.89 "Hg10 mi
3:20 PM50 °FPassing clouds.5 mph43%29.89 "HgN/A
2:50 PM50 °FPassing clouds.6 mph47%29.89 "HgN/A
2:20 PM50 °FPassing clouds.7 mph43%29.89 "HgN/A
1:50 PM50 °FPassing clouds.7 mph43%29.89 "HgN/A
1:20 PM48 °FPassing clouds.6 mph46%29.89 "HgN/A
12:50 PM48 °FSunny.6 mph54%29.89 "Hg10 mi
12:20 PM46 °FPassing clouds.6 mph57%29.89 "HgN/A
11:50 AM46 °FSunny.7 mph57%29.89 "Hg10 mi
11:20 AM45 °FSunny.7 mph61%29.89 "Hg10 mi
10:50 AM45 °FSunny.7 mph66%29.92 "Hg10 mi
10:20 AM41 °FSunny.5 mph70%29.92 "Hg10 mi
9:50 AM39 °FSunny.8 mph75%29.89 "Hg10 mi
9:20 AM36 °FSunny.9 mph87%29.92 "Hg10 mi
8:50 AM34 °FSunny.8 mph87%29.89 "Hg10 mi
8:20 AM32 °FSunny.7 mph93%29.89 "Hg10 mi
Weather by CustomWeather, © 2015

See weather overviewHow to use our weather pages